When you browse on this site, cookies collect data to enhance your experience and personalize the content and advertising you see.
Visit our Privacy Policy to learn more. By continuing to use the site, you agree to this use of cookies and data.
  • In Deutschland
  • Länderverzeichnis
  • Für 7 Tage
  • Wassertemperatur
  • Wetterkarte
  • Widgets
  • user-avatar
    Anmelden

    Stündliche Wetter Gent

    Heute, 18 November, Montag

    Zeit Temperatur Niederschläge Wind Luftdruck Luftfeuchtigkeit
    00:00 +4°C° 0 mm 1 m/S 756 mmHg 85%
    01:00 +5°C° 0 mm 1 m/S 756 mmHg 85%
    02:00 +5°C° 0 mm 1 m/S 756 mmHg 84%
    03:00 +5°C° 0 mm 1 m/S 756 mmHg 84%
    04:00 +5°C° 0.1 mm 1 m/S 756 mmHg 84%
    05:00 +5°C° 0.1 mm 1 m/S 756 mmHg 84%
    06:00 +5°C° 0.1 mm 1 m/S 756 mmHg 85%
    07:00 +6°C° 0.2 mm 1 m/S 756 mmHg 86%
    08:00 +5°C° 0.2 mm 2 m/S 756 mmHg 86%
    09:00 +5°C° 0.2 mm 2 m/S 756 mmHg 87%
    10:00 +5°C° 0.6 mm 2 m/S 756 mmHg 89%
    11:00 +5°C° 0.6 mm 3 m/S 755 mmHg 91%
    12:00 +5°C° 0.6 mm 3 m/S 755 mmHg 93%
    13:00 +5°C° 1 mm 3 m/S 755 mmHg 92%
    14:00 +7°C° 1 mm 3 m/S 755 mmHg 92%
    15:00 +7°C° 1 mm 3 m/S 755 mmHg 92%
    16:00 +7°C° 0.9 mm 3 m/S 756 mmHg 91%
    17:00 +6°C° 0.9 mm 4 m/S 756 mmHg 91%
    18:00 +6°C° 0.9 mm 4 m/S 756 mmHg 91%
    19:00 +6°C° 0.2 mm 4 m/S 757 mmHg 89%
    20:00 +6°C° 0.2 mm 4 m/S 757 mmHg 87%
    21:00 +5°C° 0.2 mm 4 m/S 757 mmHg 85%
    22:00 +5°C° 0 mm 4 m/S 758 mmHg 85%
    23:00 +4°C° 0 mm 3 m/S 758 mmHg 85%

    Morgen, 19 November, Dienstag

    Zeit Temperatur Niederschläge Wind Luftdruck Luftfeuchtigkeit
    00:00 +4°C° 0 mm 3 m/S 758 mmHg 85%
    01:00 +4°C° 0 mm 3 m/S 758 mmHg 85%
    02:00 +4°C° 0 mm 3 m/S 758 mmHg 86%
    03:00 +3°C° 0 mm 3 m/S 758 mmHg 86%
    04:00 +3°C° 0 mm 3 m/S 759 mmHg 87%
    05:00 +3°C° 0 mm 3 m/S 759 mmHg 87%
    06:00 +3°C° 0 mm 2 m/S 759 mmHg 88%
    07:00 +4°C° 0 mm 2 m/S 759 mmHg 86%
    08:00 +4°C° 0 mm 2 m/S 760 mmHg 84%
    09:00 +5°C° 0 mm 2 m/S 760 mmHg 82%
    10:00 +5°C° 0.1 mm 3 m/S 760 mmHg 77%
    11:00 +7°C° 0.1 mm 3 m/S 760 mmHg 72%
    12:00 +7°C° 0.1 mm 3 m/S 760 mmHg 67%
    13:00 +7°C° 0 mm 2 m/S 760 mmHg 68%
    14:00 +7°C° 0 mm 2 m/S 760 mmHg 68%
    15:00 +6°C° 0 mm 2 m/S 760 mmHg 69%
    16:00 +5°C° 0 mm 2 m/S 760 mmHg 72%
    17:00 +4°C° 0 mm 2 m/S 760 mmHg 75%
    18:00 +3°C° 0 mm 2 m/S 760 mmHg 78%
    19:00 +3°C° 0 mm 2 m/S 761 mmHg 80%
    20:00 +2°C° 0 mm 2 m/S 761 mmHg 82%
    21:00 +2°C° 0 mm 2 m/S 761 mmHg 84%
    22:00 +2°C° 0 mm 2 m/S 761 mmHg 84%
    23:00 +2°C° 0 mm 2 m/S 761 mmHg 84%

    übermorgen, 20 November, Mittwoch

    Zeit Temperatur Niederschläge Wind Luftdruck Luftfeuchtigkeit
    00:00 +1°C° 0 mm 2 m/S 761 mmHg 84%
    01:00 +1°C° 0 mm 2 m/S 761 mmHg 85%
    02:00 +1°C° 0 mm 2 m/S 761 mmHg 85%
    03:00 +1°C° 0 mm 2 m/S 760 mmHg 85%
    04:00 +1°C° 0 mm 2 m/S 760 mmHg 85%
    05:00 0°C° 0 mm 3 m/S 760 mmHg 85%
    06:00 0°C° 0 mm 3 m/S 760 mmHg 85%
    07:00 0°C° 0 mm 3 m/S 760 mmHg 83%
    08:00 +1°C° 0 mm 3 m/S 760 mmHg 81%
    09:00 +2°C° 0 mm 3 m/S 760 mmHg 79%
    10:00 +3°C° 0 mm 3 m/S 760 mmHg 75%
    11:00 +4°C° 0 mm 3 m/S 759 mmHg 71%
    12:00 +5°C° 0 mm 3 m/S 759 mmHg 67%
    13:00 +4°C° 0 mm 3 m/S 759 mmHg 70%
    14:00 +4°C° 0 mm 3 m/S 758 mmHg 74%
    15:00 +4°C° 0 mm 3 m/S 758 mmHg 77%
    16:00 +3°C° 0 mm 3 m/S 758 mmHg 81%
    17:00 +3°C° 0 mm 3 m/S 757 mmHg 85%
    18:00 +2°C° 0 mm 3 m/S 757 mmHg 90%
    19:00 +2°C° 0 mm 3 m/S 757 mmHg 90%
    20:00 +2°C° 0 mm 3 m/S 757 mmHg 91%
    21:00 +2°C° 0 mm 3 m/S 757 mmHg 91%
    22:00 +1°C° 0 mm 3 m/S 756 mmHg 92%
    23:00 +1°C° 0 mm 3 m/S 756 mmHg 92%

    21 November, Donnerstag

    Zeit Temperatur Niederschläge Wind Luftdruck Luftfeuchtigkeit
    00:00 +1°C° 0 mm 3 m/S 756 mmHg 93%
    01:00 +1°C° 0 mm 3 m/S 755 mmHg 93%
    02:00 +1°C° 0 mm 3 m/S 755 mmHg 93%
    03:00 +1°C° 0 mm 3 m/S 754 mmHg 93%
    04:00 +1°C° 0 mm 3 m/S 754 mmHg 92%
    05:00 +1°C° 0 mm 3 m/S 754 mmHg 91%
    06:00 +2°C° 0 mm 3 m/S 754 mmHg 90%
    07:00 +3°C° 0 mm 4 m/S 754 mmHg 88%
    08:00 +3°C° 0 mm 4 m/S 754 mmHg 85%
    09:00 +4°C° 0 mm 4 m/S 754 mmHg 82%
    10:00 +6°C° 0 mm 5 m/S 753 mmHg 79%
    11:00 +7°C° 0 mm 5 m/S 753 mmHg 76%
    12:00 +8°C° 0 mm 5 m/S 753 mmHg 72%
    13:00 +8°C° 0 mm 5 m/S 752 mmHg 74%
    14:00 +8°C° 0 mm 5 m/S 752 mmHg 76%
    15:00 +8°C° 0 mm 5 m/S 752 mmHg 78%
    16:00 +8°C° 0 mm 6 m/S 752 mmHg 78%
    17:00 +8°C° 0 mm 6 m/S 752 mmHg 79%
    18:00 +8°C° 0 mm 6 m/S 752 mmHg 79%
    19:00 +7°C° 0.1 mm 6 m/S 752 mmHg 82%
    20:00 +7°C° 0.1 mm 6 m/S 752 mmHg 84%
    21:00 +7°C° 0.1 mm 6 m/S 752 mmHg 86%
    22:00 +5°C° 0.1 mm 6 m/S 753 mmHg 88%
    23:00 +6°C° 0.1 mm 5 m/S 753 mmHg 89%

    22 November, Freitag

    Zeit Temperatur Niederschläge Wind Luftdruck Luftfeuchtigkeit
    00:00 +6°C° 0.1 mm 5 m/S 753 mmHg 91%
    01:00 +6°C° 0 mm 5 m/S 753 mmHg 91%
    02:00 +6°C° 0 mm 5 m/S 753 mmHg 92%
    03:00 +6°C° 0 mm 5 m/S 753 mmHg 92%
    04:00 +6°C° 0 mm 5 m/S 753 mmHg 92%
    05:00 +6°C° 0 mm 5 m/S 753 mmHg 92%
    06:00 +6°C° 0 mm 4 m/S 753 mmHg 92%
    07:00 +6°C° 0 mm 5 m/S 753 mmHg 91%
    08:00 +6°C° 0 mm 5 m/S 754 mmHg 90%
    09:00 +7°C° 0 mm 5 m/S 754 mmHg 89%
    10:00 +8°C° 0 mm 4 m/S 754 mmHg 86%
    11:00 +8°C° 0 mm 4 m/S 754 mmHg 82%
    12:00 +10°C° 0 mm 4 m/S 753 mmHg 79%
    13:00 +10°C° 0.1 mm 3 m/S 753 mmHg 82%
    14:00 +10°C° 0.1 mm 3 m/S 753 mmHg 84%
    15:00 +10°C° 0.1 mm 3 m/S 753 mmHg 87%
    16:00 +9°C° 1 mm 3 m/S 752 mmHg 89%
    17:00 +9°C° 1 mm 3 m/S 752 mmHg 91%
    18:00 +8°C° 1 mm 3 m/S 752 mmHg 93%
    19:00 +8°C° 0.7 mm 3 m/S 752 mmHg 92%
    20:00 +8°C° 0.7 mm 4 m/S 751 mmHg 90%
    21:00 +8°C° 0.7 mm 4 m/S 751 mmHg 89%
    22:00 +8°C° 0.9 mm 4 m/S 751 mmHg 89%
    23:00 +8°C° 0.9 mm 5 m/S 751 mmHg 88%

    23 November, Samstag

    Zeit Temperatur Niederschläge Wind Luftdruck Luftfeuchtigkeit
    00:00 +8°C° 0.9 mm 5 m/S 750 mmHg 88%
    01:00 +7°C° 0.1 mm 4 m/S 750 mmHg 85%
    02:00 +7°C° 0.1 mm 4 m/S 750 mmHg 81%
    03:00 +7°C° 0.1 mm 3 m/S 749 mmHg 78%
    04:00 +7°C° 0 mm 3 m/S 749 mmHg 80%
    05:00 +7°C° 0 mm 3 m/S 750 mmHg 81%
    06:00 +7°C° 0 mm 3 m/S 750 mmHg 82%
    07:00 +7°C° 0 mm 2 m/S 750 mmHg 83%
    08:00 +7°C° 0 mm 2 m/S 750 mmHg 84%
    09:00 +8°C° 0 mm 2 m/S 751 mmHg 85%
    10:00 +8°C° 0 mm 2 m/S 751 mmHg 84%
    11:00 +9°C° 0 mm 2 m/S 751 mmHg 82%
    12:00 +10°C° 0 mm 3 m/S 751 mmHg 81%
    13:00 +10°C° 0 mm 2 m/S 751 mmHg 82%
    14:00 +10°C° 0 mm 2 m/S 751 mmHg 84%
    15:00 +10°C° 0 mm 2 m/S 751 mmHg 85%
    16:00 +10°C° 0 mm 1 m/S 752 mmHg 86%
    17:00 +10°C° 0 mm 1 m/S 752 mmHg 88%
    18:00 +9°C° 0 mm 1 m/S 753 mmHg 89%
    19:00 +8°C° 0 mm 2 m/S 753 mmHg 90%
    20:00 +8°C° 0 mm 2 m/S 753 mmHg 92%
    21:00 +7°C° 0 mm 2 m/S 754 mmHg 93%
    22:00 +7°C° 0 mm 2 m/S 754 mmHg 94%
    23:00 +7°C° 0 mm 3 m/S 755 mmHg 95%
    Mehr zeigen